Weather History for LHPA - December, 2013

Change the Weather History Date:

Saturday, December 7, 2013

  Actual Average Record
Temperature  
Mean Temperature 36 °F -  
Max Temperature 41 °F - - ()
Min Temperature 30 °F - - ()
Degree Days  
Heating Degree Days 30    
Moisture  
Dew Point 26 °F    
Average Humidity 68    
Maximum Humidity 100    
Minimum Humidity 45    
Precipitation  
Precipitation 0.00 in - - ()
Sea Level Pressure  
Sea Level Pressure 30.14 in    
Wind  
Wind Speed 16 mph ()    
Max Wind Speed 29 mph    
Max Gust Speed 45 mph    
Visibility 5.7 miles    
Events Snow    
T = Trace of Precipitation, MM = Missing Value Source: Averaged Metar Reports

Daily Weather History Graph

Daily Weather History Graph

Search for Another Location

Airport or City:

Trip Planner

Search our weather history database for the weather conditions in past years. The results will help you decide how hot, cold, wet, or windy it might be!

Date:

Astronomy

Dec. 07, 2013 Rise Set
Actual Time 7:23 AM CET 3:59 PM CET
Civil Twilight 6:47 AM CET 4:35 PM CET
Nautical Twilight 6:09 AM CET 5:13 PM CET
Astronomical Twilight 5:31 AM CET 5:51 PM CET
Moon 10:44 AM CET (12/7) 9:35 PM CET (12/7)
Length of Visible Light 9h 47m
Length of Day
8h 36m
Waxing Crescent, 26% of the Moon is Illuminated
Dec 7
Waxing Crescent
Dec 9
First Quarter
Dec 17
Full
Dec 25
Last Quarter
Jan 1
New

Hourly Weather History & Observations

Time (CET) Temp. Windchill Dew Point Humidity Pressure Visibility Wind Dir Wind Speed Gust Speed Precip Events Conditions
12:15 AM 37.4 °F 27.6 °F 23.0 °F 56% 29.98 in - NW 17.9 mph - N/A   Clear
12:45 AM 37.4 °F 27.0 °F 21.2 °F 52% 29.98 in - WNW 20.1 mph 33.6 mph N/A   Clear
1:15 AM 37.4 °F 27.6 °F 21.2 °F 52% 29.98 in - WNW 17.9 mph - N/A   Clear
1:45 AM 37.4 °F 29.1 °F 23.0 °F 56% 30.01 in - WNW 13.4 mph - N/A   Clear
2:15 AM 37.4 °F 29.1 °F 23.0 °F 56% 30.01 in - West 13.4 mph - N/A   Clear
2:45 AM 37.4 °F 27.6 °F 23.0 °F 56% 30.01 in - WNW 17.9 mph - N/A   Clear
3:15 AM 35.6 °F 26.8 °F 24.8 °F 65% 30.01 in - West 13.4 mph - N/A   Clear
3:45 AM 35.6 °F 26.8 °F 26.6 °F 70% 30.01 in - West 13.4 mph - N/A   Clear
4:15 AM 35.6 °F 26.0 °F 24.8 °F 65% 30.01 in - West 15.7 mph - N/A   Clear
4:42 AM 37.4 °F 28.3 °F 24.8 °F 60% 30.04 in 6.2 mi WNW 15.7 mph 33.6 mph N/A   Mostly Cloudy
4:45 AM 37.4 °F 27.6 °F 24.8 °F 60% 30.04 in 6.2 mi NW 17.9 mph 29.1 mph N/A   Mostly Cloudy
5:15 AM 35.6 °F 25.3 °F 26.6 °F 70% 30.06 in 1.2 mi NW 17.9 mph 33.6 mph N/A Snow Snow Showers
5:22 AM 32.0 °F 18.3 °F 30.2 °F 93% 30.06 in 0.3 mi NNW 26.8 mph 44.7 mph N/A Snow Snow Showers
5:42 AM 30.2 °F 16.4 °F 30.2 °F 100% 30.06 in 3.7 mi NNW 24.6 mph - N/A Snow Light Snow Showers
5:45 AM 30.2 °F 17.6 °F 30.2 °F 100% 30.06 in 3.7 mi NNW 20.1 mph 33.6 mph N/A Snow Light Snow Showers
6:04 AM 30.2 °F 19.9 °F 30.2 °F 100% 30.06 in 6.2 mi NW 13.4 mph - N/A   Mostly Cloudy
6:15 AM 30.2 °F 20.9 °F 30.2 °F 100% 30.06 in - NW 11.2 mph - N/A   Clear
6:45 AM 32.0 °F 24.3 °F 28.4 °F 87% 30.09 in - WNW 8.9 mph - N/A   Clear
7:15 AM 33.8 °F 24.5 °F 26.6 °F 75% 30.09 in 6.2 mi WNW 13.4 mph 24.6 mph N/A   Mostly Cloudy
7:45 AM 33.8 °F 24.5 °F 24.8 °F 70% 30.09 in - WNW 13.4 mph - N/A   Clear
8:15 AM 33.8 °F 23.7 °F 24.8 °F 70% 30.12 in - WNW 15.7 mph - N/A   Clear
8:27 AM 33.8 °F 23.7 °F 24.8 °F 70% 30.12 in - NW 15.7 mph 26.8 mph N/A   Clear
8:45 AM 35.6 °F 26.0 °F 24.8 °F 65% 30.12 in 6.2 mi WNW 15.7 mph 26.8 mph N/A   Scattered Clouds
9:15 AM 35.6 °F 26.0 °F 24.8 °F 65% 30.12 in 6.2 mi WNW 15.7 mph - N/A   Mostly Cloudy
9:44 AM 37.4 °F 28.3 °F 24.8 °F 60% 30.15 in 6.2 mi NW 15.7 mph 26.8 mph N/A   Mostly Cloudy
9:45 AM 37.4 °F 27.6 °F 24.8 °F 60% 30.15 in 6.2 mi NW 17.9 mph - N/A   Mostly Cloudy
10:15 AM 37.4 °F 27.6 °F 24.8 °F 60% 30.15 in 6.2 mi WNW 17.9 mph - N/A   Mostly Cloudy
10:45 AM 37.4 °F 26.5 °F 23.0 °F 56% 30.15 in 6.2 mi NW 22.4 mph 33.6 mph N/A   Mostly Cloudy
11:03 AM 39.2 °F 28.0 °F 23.0 °F 52% 30.15 in 6.2 mi NW 26.8 mph 40.3 mph N/A   Mostly Cloudy
11:15 AM 39.2 °F 28.4 °F 23.0 °F 52% 30.15 in 6.2 mi NW 24.6 mph 44.7 mph N/A   Mostly Cloudy
11:45 AM 39.2 °F 28.0 °F 21.2 °F 49% 30.15 in 6.2 mi NNW 26.8 mph 44.7 mph N/A   Partly Cloudy
12:15 PM 39.2 °F 28.0 °F 21.2 °F 49% 30.15 in 6.2 mi NW 26.8 mph 38.0 mph N/A   Scattered Clouds
12:45 PM 41.0 °F 30.4 °F 21.2 °F 45% 30.15 in 6.2 mi NW 26.8 mph 40.3 mph N/A   Partly Cloudy
1:15 PM 41.0 °F 31.3 °F 21.2 °F 45% 30.15 in 6.2 mi NW 22.4 mph 42.5 mph N/A   Scattered Clouds
1:45 PM 39.2 °F 28.4 °F 21.2 °F 49% 30.18 in 6.2 mi NW 24.6 mph 35.8 mph N/A   Mostly Cloudy
2:15 PM 37.4 °F 26.0 °F 24.8 °F 60% 30.18 in 6.2 mi NW 24.6 mph 35.8 mph N/A   Mostly Cloudy
2:30 PM 37.4 °F 25.5 °F 24.8 °F 60% 30.21 in 6.2 mi NW 26.8 mph 42.5 mph N/A   Mostly Cloudy
2:38 PM 37.4 °F 25.1 °F 26.6 °F 65% 30.21 in 5.0 mi NNW 29.1 mph 42.5 mph N/A Snow Snow Showers
2:45 PM 35.6 °F 23.1 °F 28.4 °F 75% 30.21 in 6.2 mi NNW 26.8 mph 38.0 mph N/A Snow Light Snow Showers
2:49 PM 35.6 °F 23.6 °F 28.4 °F 75% 30.21 in 6.2 mi NNW 24.6 mph - N/A   Mostly Cloudy
3:15 PM 37.4 °F 29.1 °F 28.4 °F 70% 30.21 in 6.2 mi NW 13.4 mph - N/A   Mostly Cloudy
3:45 PM 37.4 °F 27.0 °F 26.6 °F 65% 30.21 in 6.2 mi NW 20.1 mph - N/A   Mostly Cloudy
4:15 PM 37.4 °F 29.1 °F 26.6 °F 65% 30.21 in 6.2 mi NW 13.4 mph - N/A   Mostly Cloudy
4:45 PM 37.4 °F 28.3 °F 26.6 °F 65% 30.21 in 6.2 mi NW 15.7 mph - N/A   Mostly Cloudy
5:15 PM 35.6 °F 26.8 °F 26.6 °F 70% 30.21 in 6.2 mi NW 13.4 mph - N/A   Mostly Cloudy
5:45 PM 35.6 °F 30.0 °F 26.6 °F 70% 30.21 in - West 6.7 mph - N/A   Clear
6:15 PM 33.8 °F 29.7 °F 26.6 °F 75% 30.24 in - WSW 4.5 mph - N/A   Clear
6:45 PM 33.8 °F 27.9 °F 28.4 °F 81% 30.21 in - SW 6.7 mph - N/A   Clear
7:15 PM 33.8 °F 27.9 °F 26.6 °F 75% 30.24 in - SW 6.7 mph - N/A   Clear
7:45 PM 33.8 °F 29.7 °F 26.6 °F 75% 30.24 in - SSW 4.5 mph - N/A   Clear
8:15 PM 37.4 °F 32.2 °F 24.8 °F 60% 30.24 in - West 6.7 mph - N/A   Clear
8:45 PM 37.4 °F 32.2 °F 24.8 °F 60% 30.24 in - West 6.7 mph - N/A   Clear
9:15 PM 37.4 °F 30.9 °F 28.4 °F 70% 30.24 in - West 8.9 mph - N/A   Clear
9:45 PM 37.4 °F 29.9 °F 28.4 °F 70% 30.24 in - WSW 11.2 mph - N/A   Clear
10:15 PM 33.8 °F 25.4 °F 32.0 °F 93% 30.24 in - SW 11.2 mph - N/A   Clear
10:45 PM 33.8 °F 25.4 °F 32.0 °F 93% 30.24 in 6.2 mi SW 11.2 mph - N/A   Mostly Cloudy
11:15 PM 33.8 °F 26.5 °F 32.0 °F 93% 30.24 in 6.2 mi SSW 8.9 mph - N/A   Mostly Cloudy
11:45 PM 33.8 °F 29.7 °F 32.0 °F 93% 30.24 in 6.2 mi South 4.5 mph - N/A   Mostly Cloudy